Weather in Shebalino

Russia / Altai Krai     52°42′57″N   85°47′32″E
temp.,
°C
wind,
m/s
gust,
m/s
humid.,
%
clouds,
%
prec.,
mm/h
press.,
hPa
HPBL,
m
30 june, thu
thu3001:00+19e476687 0.0 99495
04:00+18wsw4965100 0.0 995202
07:00+14w61379100 0.0 1001724
10:00+16wsw6867100 0.1 1003979
13:00+18wsw3552100 0.2 10041212
16:00+19ssw345556 0.1 10041195
19:00+19sw2461100 0.1 10031206
22:00+13sse239088 0.0 100431
1 july, fri
fri101:00+13se118586 0.0 100311
04:00+13ssw118310 0.0 100311
07:00+14wsw24880 0.0 1005153
10:00+17w45584 0.0 1005645
13:00+19wsw465133 0.0 10061609
16:00+21w5748100 0.0 10052033
19:00+19wnw466198 0.0 1006609
22:00+13w3371100 0.0 100738
2 july, sat
sat201:00+13ssw3566100 0.0 1008107
04:00+13ssw357099 0.0 1009133
07:00+12sw248038 0.0 1009130
10:00+17sw456664 0.0 1009648
13:00+20w584982 0.0 10092102
16:00+20w475175 0.0 10082111
19:00+19nw35672 0.2 1009811
22:00+13nw11854 0.3 100910
3 july, sun
sun301:00+12wnw118819 0.9 100910
04:00+10wnw00895 0.3 100910
07:00+12ssw118990 0.3 100957
10:00+16sw228015 0.8 1009279
13:00+19w456819 3.6 10091092
16:00+21nnw235697 0.4 10081226
19:00+20n22634 0.4 10071068
22:00+14ne32834 0.0 100719
4 july, mon
mon401:00+12ene22860 0.0 100613
04:00+11e34860 0.0 100553
07:00+13e2582100 0.0 1004118
10:00+18e2366100 0.0 1003382
13:00+20e4562100 0.0 1001684
16:00+22nne555486 0.0 10001065
19:00+18nne4981100 0.7 997245
22:00+15ne118972 0.7 99711